Total_Precipitation_Accumulation
0.07 0.08 0.09 0.09 0.05 0.02 0.01 0.00 0.00 0.00 0.00 0.00 0.00 0.00 0.00 0.00 0.01 0.04 0.02 0.02 0.03 0.04 0.09 0.20 0.29 0.32 0.36 0.37 0.35 0.32 0.32 0.33 0.36 0.40 0.38 0.39 0.42 0.43 0.49 0.50 0.53 0.56 0.62 0.68 0.66 0.64 0.66 0.66 0.68
0.07 0.11 0.13 0.11 0.05 0.01 0.01 0.00 0.00 0.00 0.00 0.00 0.00 0.00 0.00 0.01 0.01 0.01 0.02 0.01 0.01 0.02 0.06 0.14 0.26 0.31 0.34 0.35 0.35 0.34 0.33 0.32 0.33 0.39 0.40 0.42 0.45 0.49 0.50 0.53 0.57 0.59 0.64 0.65 0.70 0.71 0.70 0.69 0.66
0.12 0.16 0.16 0.11 0.03 0.01 0.01 0.00 0.00 0.00 0.00 0.00 0.00 0.00 0.00 0.01 0.01 0.01 0.01 0.01 0.01 0.02 0.05 0.12 0.25 0.32 0.36 0.40 0.40 0.37 0.35 0.35 0.36 0.41 0.44 0.48 0.52 0.54 0.52 0.55 0.56 0.57 0.61 0.59 0.63 0.68 0.65 0.61 0.57
0.19 0.24 0.19 0.09 0.01 0.00 0.00 0.00 0.00 0.00 0.00 0.00 0.00 0.00 0.01 0.01 0.01 0.01 0.01 0.01 0.01 0.03 0.06 0.12 0.26 0.33 0.38 0.44 0.47 0.43 0.39 0.40 0.43 0.46 0.49 0.51 0.53 0.55 0.55 0.54 0.49 0.50 0.54 0.55 0.58 0.61 0.60 0.59 0.57
0.26 0.24 0.17 0.07 0.01 0.00 0.00 0.00 0.00 0.00 0.00 0.00 0.00 0.01 0.01 0.01 0.01 0.01 0.02 0.02 0.02 0.04 0.07 0.13 0.26 0.35 0.39 0.44 0.50 0.48 0.45 0.44 0.47 0.50 0.53 0.54 0.56 0.58 0.55 0.54 0.49 0.45 0.43 0.48 0.54 0.58 0.59 0.63 0.58
0.33 0.25 0.12 0.04 0.01 0.00 0.00 0.00 0.00 0.00 0.01 0.01 0.01 0.01 0.02 0.02 0.02 0.02 0.02 0.03 0.03 0.05 0.09 0.15 0.30 0.36 0.39 0.45 0.52 0.52 0.51 0.51 0.52 0.54 0.57 0.60 0.60 0.61 0.57 0.52 0.50 0.47 0.42 0.42 0.46 0.53 0.62 0.67 0.59
0.34 0.22 0.09 0.02 0.01 0.00 0.00 0.00 0.00 0.01 0.02 0.02 0.02 0.02 0.03 0.04 0.03 0.03 0.04 0.04 0.05 0.07 0.11 0.18 0.28 0.35 0.43 0.52 0.57 0.56 0.56 0.56 0.55 0.58 0.60 0.63 0.62 0.64 0.61 0.56 0.50 0.48 0.46 0.44 0.43 0.47 0.56 0.61 0.59
0.35 0.28 0.12 0.04 0.02 0.01 0.00 0.00 0.00 0.01 0.02 0.02 0.02 0.01 0.02 0.03 0.04 0.05 0.07 0.09 0.11 0.12 0.14 0.20 0.28 0.34 0.41 0.50 0.55 0.58 0.60 0.63 0.60 0.58 0.55 0.51 0.54 0.61 0.60 0.51 0.48 0.47 0.46 0.46 0.42 0.42 0.45 0.48 0.50
0.45 0.41 0.17 0.05 0.03 0.02 0.01 0.01 0.01 0.01 0.02 0.03 0.02 0.01 0.01 0.03 0.05 0.08 0.13 0.18 0.19 0.19 0.20 0.24 0.32 0.39 0.47 0.51 0.51 0.59 0.64 0.67 0.64 0.61 0.51 0.49 0.51 0.50 0.49 0.41 0.41 0.45 0.48 0.46 0.47 0.47 0.44 0.39 0.34
0.57 0.43 0.16 0.06 0.04 0.04 0.03 0.03 0.02 0.02 0.03 0.03 0.02 0.02 0.03 0.05 0.09 0.11 0.14 0.18 0.20 0.21 0.25 0.28 0.35 0.44 0.53 0.52 0.54 0.64 0.64 0.62 0.59 0.55 0.50 0.51 0.52 0.48 0.44 0.41 0.40 0.43 0.45 0.47 0.50 0.49 0.46 0.41 0.33
0.53 0.39 0.17 0.08 0.07 0.08 0.07 0.05 0.04 0.05 0.05 0.03 0.03 0.03 0.05 0.09 0.13 0.14 0.14 0.18 0.20 0.23 0.27 0.28 0.38 0.48 0.56 0.59 0.56 0.61 0.64 0.64 0.62 0.59 0.55 0.55 0.59 0.56 0.47 0.43 0.39 0.42 0.42 0.46 0.46 0.46 0.44 0.44 0.45
0.47 0.32 0.21 0.13 0.10 0.12 0.12 0.09 0.07 0.07 0.06 0.04 0.04 0.04 0.05 0.09 0.12 0.14 0.17 0.22 0.28 0.29 0.32 0.35 0.40 0.52 0.61 0.64 0.61 0.59 0.57 0.56 0.56 0.56 0.58 0.59 0.57 0.51 0.44 0.40 0.35 0.35 0.36 0.41 0.44 0.43 0.41 0.43 0.46
0.43 0.29 0.20 0.17 0.15 0.14 0.16 0.15 0.12 0.10 0.06 0.06 0.08 0.10 0.11 0.12 0.15 0.19 0.25 0.31 0.33 0.35 0.37 0.39 0.42 0.52 0.65 0.73 0.69 0.64 0.60 0.53 0.53 0.57 0.59 0.54 0.52 0.49 0.46 0.42 0.40 0.38 0.35 0.37 0.40 0.41 0.40 0.40 0.43
0.40 0.33 0.25 0.21 0.21 0.20 0.21 0.19 0.15 0.12 0.09 0.11 0.13 0.15 0.16 0.17 0.20 0.23 0.27 0.31 0.35 0.38 0.41 0.47 0.48 0.54 0.64 0.71 0.69 0.65 0.65 0.64 0.63 0.57 0.57 0.59 0.57 0.54 0.52 0.49 0.48 0.45 0.40 0.38 0.42 0.45 0.45 0.44 0.43
0.39 0.44 0.38 0.29 0.26 0.27 0.29 0.31 0.20 0.12 0.12 0.17 0.15 0.15 0.17 0.19 0.23 0.26 0.28 0.31 0.33 0.41 0.48 0.53 0.59 0.60 0.64 0.69 0.73 0.73 0.70 0.69 0.66 0.58 0.54 0.55 0.59 0.61 0.56 0.52 0.50 0.50 0.52 0.50 0.47 0.47 0.51 0.47 0.44
0.60 0.67 0.58 0.34 0.26 0.29 0.40 0.39 0.17 0.13 0.14 0.19 0.17 0.16 0.15 0.16 0.20 0.27 0.31 0.37 0.42 0.50 0.56 0.60 0.65 0.65 0.68 0.72 0.78 0.81 0.80 0.78 0.70 0.64 0.60 0.56 0.56 0.62 0.65 0.59 0.55 0.55 0.59 0.61 0.58 0.51 0.52 0.51 0.48
0.88 0.75 0.48 0.29 0.23 0.30 0.39 0.33 0.17 0.14 0.17 0.18 0.17 0.17 0.16 0.16 0.17 0.22 0.30 0.37 0.47 0.53 0.59 0.66 0.68 0.69 0.70 0.73 0.84 0.90 0.91 0.87 0.81 0.74 0.64 0.61 0.62 0.62 0.64 0.64 0.61 0.65 0.67 0.63 0.64 0.59 0.62 0.60 0.56
0.68 0.47 0.35 0.28 0.24 0.27 0.29 0.23 0.17 0.17 0.18 0.18 0.17 0.17 0.17 0.16 0.15 0.18 0.27 0.38 0.50 0.59 0.64 0.72 0.76 0.81 0.85 0.89 0.93 1.04 1.04 0.97 0.91 0.83 0.73 0.63 0.62 0.67 0.72 0.69 0.69 0.72 0.74 0.71 0.68 0.65 0.62 0.63 0.66
0.44 0.39 0.33 0.25 0.22 0.27 0.26 0.21 0.18 0.19 0.18 0.17 0.16 0.17 0.18 0.17 0.17 0.18 0.26 0.35 0.46 0.55 0.65 0.74 0.80 0.87 0.91 0.90 0.87 0.91 0.93 0.93 0.94 0.88 0.83 0.78 0.72 0.69 0.76 0.76 0.73 0.74 0.71 0.68 0.65 0.67 0.65 0.60 0.62
0.57 0.54 0.39 0.28 0.22 0.28 0.28 0.23 0.20 0.20 0.20 0.17 0.15 0.15 0.16 0.17 0.18 0.21 0.26 0.35 0.42 0.48 0.59 0.74 0.77 0.86 0.89 0.84 0.81 0.84 0.92 0.95 0.99 0.99 0.96 0.86 0.78 0.73 0.76 0.82 0.79 0.73 0.71 0.68 0.62 0.63 0.65 0.60 0.59
0.66 0.51 0.37 0.34 0.34 0.35 0.36 0.30 0.18 0.18 0.15 0.13 0.12 0.12 0.14 0.16 0.18 0.20 0.25 0.33 0.39 0.45 0.51 0.67 0.73 0.78 0.89 0.93 1.02 1.05 1.13 1.14 1.09 1.03 0.99 0.88 0.78 0.71 0.70 0.79 0.87 0.82 0.74 0.68 0.65 0.64 0.63 0.62 0.58
0.67 0.36 0.34 0.41 0.60 0.70 0.52 0.53 0.21 0.17 0.15 0.14 0.12 0.13 0.13 0.14 0.16 0.20 0.23 0.31 0.39 0.40 0.47 0.57 0.68 0.72 0.87 0.99 1.02 0.97 0.92 0.93 0.87 0.86 0.88 0.83 0.78 0.73 0.70 0.78 0.87 0.91 0.80 0.68 0.65 0.66 0.65 0.65 0.65
0.51 0.34 0.42 0.58 0.75 0.85 0.58 0.58 0.27 0.15 0.19 0.17 0.14 0.14 0.13 0.12 0.14 0.19 0.22 0.29 0.39 0.44 0.50 0.56 0.61 0.68 0.79 0.93 0.98 0.99 0.92 0.88 0.91 0.93 0.93 0.94 0.83 0.79 0.75 0.76 0.81 0.87 0.82 0.74 0.68 0.66 0.68 0.67 0.68
0.51 0.62 0.76 0.91 1.30 1.41 0.51 0.44 0.30 0.19 0.20 0.17 0.15 0.14 0.14 0.13 0.15 0.19 0.24 0.30 0.42 0.52 0.56 0.61 0.61 0.66 0.73 0.84 0.94 1.00 0.95 0.94 1.03 0.99 1.00 1.04 1.02 0.92 0.85 0.84 0.79 0.79 0.76 0.73 0.71 0.69 0.69 0.67 0.66
0.90 1.34 1.97 2.06 2.04 1.16 0.25 0.26 0.27 0.15 0.11 0.11 0.13 0.15 0.16 0.14 0.16 0.18 0.23 0.32 0.45 0.54 0.56 0.63 0.67 0.64 0.68 0.78 0.83 0.88 0.97 1.02 1.03 1.06 1.01 1.01 1.02 0.94 0.86 0.85 0.80 0.78 0.76 0.71 0.69 0.71 0.71 0.71 0.73
0.93 1.18 1.59 1.45 0.91 0.41 0.20 0.23 0.20 0.11 0.08 0.06 0.06 0.09 0.12 0.15 0.17 0.20 0.22 0.30 0.42 0.52 0.57 0.61 0.66 0.66 0.68 0.73 0.76 0.80 0.89 0.99 1.03 1.07 1.08 1.05 1.00 0.96 0.88 0.88 0.86 0.82 0.79 0.79 0.75 0.72 0.71 0.72 0.73
0.81 0.88 0.79 1.05 0.75 0.43 0.31 0.21 0.15 0.09 0.08 0.06 0.05 0.07 0.09 0.11 0.14 0.20 0.20 0.25 0.38 0.48 0.51 0.51 0.61 0.67 0.68 0.72 0.75 0.77 0.82 0.89 0.91 0.95 1.01 1.06 1.07 1.02 1.01 0.98 0.95 0.91 0.89 0.92 0.92 0.84 0.77 0.76 0.75
0.68 0.80 0.98 1.45 1.24 0.64 0.32 0.21 0.21 0.16 0.12 0.09 0.08 0.09 0.12 0.13 0.14 0.20 0.21 0.22 0.31 0.43 0.46 0.44 0.53 0.61 0.61 0.66 0.74 0.76 0.79 0.84 0.88 0.92 0.94 0.95 1.01 1.05 1.07 1.07 1.00 0.96 0.94 0.98 1.05 1.01 0.88 0.85 0.81
0.77 1.00 1.26 1.34 1.00 0.71 0.45 0.32 0.26 0.22 0.19 0.16 0.14 0.13 0.15 0.16 0.17 0.22 0.24 0.24 0.28 0.36 0.40 0.41 0.46 0.59 0.62 0.61 0.67 0.75 0.79 0.85 0.94 0.97 0.95 0.92 0.93 0.99 1.02 1.03 1.01 0.98 0.98 1.00 1.01 1.02 1.02 1.00 0.95
0.72 0.85 1.02 1.34 1.04 0.60 0.49 0.35 0.22 0.20 0.19 0.17 0.19 0.17 0.14 0.15 0.15 0.19 0.23 0.27 0.32 0.38 0.42 0.40 0.42 0.53 0.65 0.64 0.60 0.66 0.77 0.84 0.93 0.96 0.95 0.96 0.91 0.91 0.98 1.03 1.03 0.98 0.98 1.03 1.09 1.06 1.04 1.07 1.06